Overview Statistics Trail Chart Weather Telemetry Raw packets
 

This is the latest recevied weather packets stored in our database for station/object R2AKT-13. If no packets are shown the sender has not sent any weather packets the latest 10 day(s).

<< 48 49 50 51 52 53 54 >>
Time Temp. Humidity Pressure Rain* Wind** Luminosity Snow
1788054231 13.33° C 70% 998.2 hPa - 2.24 m/s, 176° - -
1788053751 13.33° C 71% 998.3 hPa - 2.24 m/s, 174° - -
1788053261 13.89° C 71% 998.3 hPa - 2.68 m/s, 176° - -
1788052693 13.89° C 71% 998.3 hPa - 1.34 m/s, 184° - -
1788052171 13.89° C 71% 998.4 hPa - 1.34 m/s, 176° - -
1788051681 13.89° C 71% 998.4 hPa - 2.24 m/s, 179° - -
1788051171 13.89° C 71% 998.4 hPa - 2.24 m/s, 178° - -
1788050641 14.44° C 70% 998.5 hPa - 2.24 m/s, 178° - -
1788050046 13.89° C 71% 998.5 hPa - 1.79 m/s, 174° - -
1788049501 14.44° C 71% 998.5 hPa - 1.79 m/s, 178° - -
1788048941 14.44° C 71% 998.7 hPa - 1.34 m/s, 192° - -
1788048401 14.44° C 72% 998.7 hPa - 1.79 m/s, 174° - -
1788047816 13.89° C 75% 998.8 hPa - 1.79 m/s, 178° - -
1788047256 13.89° C 76% 998.8 hPa - 1.34 m/s, 181° - -
1788046696 13.89° C 74% 998.7 hPa - 1.79 m/s, 178° - -
1788046176 14.44° C 74% 998.7 hPa - 2.24 m/s, 179° - -
1788045621 13.89° C 77% 998.7 hPa - 1.79 m/s, 172° - -
1788045131 13.89° C 78% 998.6 hPa - 1.79 m/s, 172° - -
1788044646 13.89° C 77% 998.7 hPa - 1.79 m/s, 176° - -
1788044086 13.89° C 77% 998.7 hPa - 2.24 m/s, 176° - -
1788043601 14.44° C 77% 998.7 hPa - 1.79 m/s, 178° - -
1788043011 14.44° C 76% 998.7 hPa - 1.79 m/s, 179° - -
1788042516 14.44° C 76% 998.7 hPa - 1.34 m/s, 184° - -
1788041986 14.44° C 76% 998.7 hPa - 1.79 m/s, 179° - -
1788041471 14.44° C 76% 998.6 hPa - 1.34 m/s, 175° - -

* Rain since midnight (hover to see other rain measurements)
** Current wind speed in m/s (hover to see current wind gust speed)